Lapse_Rate
7.9 8.1 8.1 8.5 9.2 9.3 8.7 8.6 9.4 9.6 9.4 8.6 9.3 9.2 6.9 7.6 6.3 6.6 6.6 6.5 5.4 5.1 4.9 4.9 4.9 4.9 5.2 5.3 5.2 5.1 5.0 5.0 4.9 5.0 5.1 5.1 5.2 5.2 5.0 6.0 6.3 6.8 6.8 6.7
8.3 8.0 8.3 8.5 9.4 9.4 7.9 9.2 9.4 9.3 9.4 8.9 9.3 9.3 9.4 7.2 6.5 6.1 5.8 6.0 5.4 5.1 5.3 5.4 5.2 5.0 4.7 5.2 5.2 5.0 5.0 4.9 4.9 5.1 5.3 5.2 4.9 4.9 5.8 6.3 6.6 6.9 7.0 7.1
8.4 8.2 8.5 8.7 9.0 9.6 9.5 9.5 9.5 9.2 9.0 9.0 8.7 8.8 8.8 7.9 6.9 6.6 6.2 5.6 5.3 5.2 5.0 5.8 5.2 4.8 5.0 5.3 5.2 5.0 5.0 4.9 5.0 5.4 5.5 5.5 5.5 5.7 6.1 6.4 6.8 7.1 7.3 7.5
8.6 8.7 9.3 8.7 9.0 9.5 9.5 9.5 9.5 9.6 9.5 9.5 8.9 9.5 8.8 8.7 7.2 6.7 6.5 6.0 5.5 5.2 5.0 4.7 4.4 4.7 5.1 5.3 5.0 4.9 5.0 5.1 5.2 5.5 5.6 5.7 5.7 5.8 6.3 6.7 7.0 7.4 7.5 7.7
8.4 8.9 8.9 9.2 8.8 9.5 9.6 9.6 9.5 9.5 9.5 9.5 8.9 9.5 9.7 8.9 7.7 7.1 6.7 6.3 5.9 5.3 5.1 4.9 4.6 4.4 4.7 5.1 5.1 5.0 5.0 5.2 5.4 5.6 5.9 6.0 6.0 6.2 6.6 7.0 7.3 7.5 7.7 7.8
8.4 8.8 8.9 8.7 8.7 9.1 9.6 9.5 9.5 9.5 9.4 9.7 9.6 9.5 9.6 9.2 8.4 7.6 7.0 6.6 6.2 5.8 5.3 5.0 4.7 4.5 5.1 4.9 5.1 5.1 5.2 5.4 5.6 5.9 6.2 6.3 6.5 6.6 6.9 7.1 7.4 7.6 7.8 8.0
8.1 8.5 8.7 8.7 9.5 9.6 9.6 9.5 9.6 9.7 9.8 9.9 9.7 9.6 9.8 8.9 9.4 8.6 7.5 6.8 6.3 6.1 5.5 5.2 4.7 4.9 5.7 5.4 5.4 5.3 5.5 5.7 6.0 6.2 6.5 6.7 6.8 6.8 7.0 7.2 7.5 7.8 7.9 7.9
8.2 8.5 8.6 8.7 9.3 9.5 9.6 9.5 9.6 9.4 9.7 9.9 9.1 9.6 9.6 8.5 9.5 9.0 8.1 7.1 6.5 6.2 5.8 5.4 4.8 5.7 5.8 5.7 5.6 5.6 5.8 6.0 6.3 6.4 6.7 7.0 6.9 7.0 7.1 7.4 7.7 7.9 7.9 7.9
9.4 8.3 8.6 8.5 8.3 8.9 9.5 9.6 9.5 9.6 9.5 9.5 7.7 9.3 9.6 9.5 9.3 9.3 8.7 7.5 6.8 6.3 6.1 5.4 5.0 5.5 5.9 6.0 5.9 6.0 6.1 6.2 6.4 6.6 6.8 7.1 7.1 7.2 7.3 7.6 7.8 8.0 8.0 8.0
9.0 9.6 9.5 8.6 8.4 8.6 9.4 9.6 9.6 9.5 9.8 7.7 8.5 8.4 9.6 9.6 9.6 9.4 8.5 7.8 7.0 6.3 6.1 5.6 5.2 5.6 5.9 6.0 6.0 6.1 6.2 6.4 6.5 6.7 6.8 7.1 7.3 7.4 7.5 7.7 7.8 8.0 8.1 8.2
8.5 9.6 9.6 9.6 8.5 8.5 8.9 9.5 9.6 9.5 9.6 9.6 8.7 8.1 9.7 9.6 9.6 9.1 8.4 7.8 6.9 6.3 6.1 5.8 5.4 5.9 6.2 6.1 6.2 6.3 6.3 6.5 6.6 6.8 6.9 7.2 7.4 7.6 7.7 7.8 7.9 8.0 8.2 8.2
8.0 9.5 9.5 9.6 9.1 8.3 8.9 9.5 9.6 9.6 9.6 9.6 9.5 9.4 9.9 9.6 9.3 8.9 8.3 7.7 6.8 6.4 6.2 6.0 5.7 5.9 6.4 6.3 6.3 6.5 6.5 6.7 6.8 6.8 7.0 7.3 7.5 7.7 7.8 7.9 8.1 8.1 8.3 8.3
7.3 8.3 9.6 9.6 9.6 8.7 8.6 9.3 9.6 9.5 9.6 9.7 9.3 9.0 9.4 9.5 8.9 8.7 8.2 7.6 6.9 6.4 6.4 6.1 5.7 6.3 6.8 6.8 6.6 6.6 6.8 6.9 6.9 7.0 7.2 7.4 7.6 7.7 7.9 8.1 8.2 8.3 8.3 8.2
6.3 7.1 9.1 9.6 9.5 9.1 8.4 9.3 9.6 9.6 9.6 9.5 9.6 8.6 9.6 9.7 8.9 8.7 8.0 7.5 7.0 6.7 6.5 6.3 6.7 7.3 7.1 7.0 6.9 6.8 6.9 7.0 7.1 7.3 7.4 7.6 7.8 7.8 8.0 8.3 8.3 8.3 8.3 8.2
6.2 7.1 8.0 8.3 9.6 9.6 9.5 8.6 9.6 9.6 9.6 9.5 9.3 9.1 7.7 9.6 8.8 8.6 8.1 7.4 7.0 6.8 6.7 6.9 7.6 7.6 7.4 7.3 7.2 7.1 7.1 7.1 7.3 7.5 7.6 7.8 7.9 8.0 8.4 8.4 8.5 8.5 8.4 8.3
6.5 6.8 7.8 8.3 9.2 9.6 9.6 9.5 9.2 9.6 9.6 9.6 9.3 9.4 9.8 9.6 8.9 8.6 8.3 7.5 7.3 7.0 6.9 7.2 7.9 7.8 7.7 7.7 7.6 7.5 7.4 7.5 7.5 7.7 7.8 7.7 7.9 8.3 8.5 8.3 8.6 8.5 8.4 8.2
5.4 6.5 7.5 8.0 8.6 9.5 9.7 9.6 9.2 9.3 9.5 9.6 9.6 8.9 9.3 9.0 9.5 8.7 8.4 8.1 7.5 7.8 7.4 8.1 8.2 8.1 8.1 8.0 7.9 7.8 7.8 7.7 7.7 7.9 7.8 7.9 8.1 8.4 8.3 8.3 8.5 8.2 8.3 7.4
5.4 5.6 6.8 8.2 8.6 9.7 9.5 9.6 9.6 9.3 9.5 9.6 9.6 9.7 9.3 9.6 9.6 9.1 9.0 8.6 8.0 7.6 8.0 8.5 8.5 8.5 8.4 8.3 8.1 7.9 7.9 7.9 7.9 8.0 8.0 8.1 8.3 8.3 8.4 8.3 8.3 8.2 8.4 8.3
5.8 5.6 6.9 7.3 8.1 8.8 9.3 9.4 9.6 9.6 8.8 9.6 9.6 9.2 9.7 8.6 9.5 9.5 9.1 9.0 8.6 8.3 8.9 8.7 8.5 8.7 8.8 8.8 8.8 8.5 8.4 8.3 8.2 8.2 8.2 8.4 8.5 8.5 8.5 8.4 8.2 8.2 8.3 8.5
6.4 5.7 6.0 7.4 8.7 8.9 8.8 9.3 9.6 9.6 9.5 9.6 9.6 9.1 9.1 9.4 9.1 9.5 9.4 9.2 8.8 8.5 8.3 8.3 8.8 8.9 8.7 8.7 8.6 8.6 8.6 8.6 8.5 8.4 8.5 8.6 8.6 8.5 8.5 8.4 8.3 8.5 8.6 8.5
7.1 6.8 6.1 6.8 7.8 9.1 9.4 9.6 9.7 9.6 9.2 9.3 9.4 9.0 8.6 9.3 9.5 9.5 9.5 9.4 8.9 8.7 8.7 8.9 9.0 8.9 9.1 9.0 8.8 8.7 8.6 8.5 9.0 8.9 8.7 8.7 8.6 8.6 8.6 8.6 8.5 8.8 8.6 8.5
7.7 7.1 6.8 7.1 7.8 9.0 8.8 9.1 9.1 8.6 8.4 8.7 8.6 8.6 8.2 8.1 8.3 8.7 8.9 8.9 9.2 9.2 8.9 8.9 8.9 9.0 9.0 9.1 9.0 9.0 8.8 9.0 9.0 9.0 8.8 8.7 8.7 8.7 8.6 8.8 8.9 8.8 8.8 8.6
8.8 7.5 7.8 7.4 7.5 8.6 7.9 7.5 6.8 7.1 7.4 7.7 7.5 7.3 7.4 7.4 7.9 8.1 8.4 8.5 8.9 8.7 8.9 9.0 9.0 9.0 9.0 9.0 9.0 9.1 9.3 9.1 9.0 9.0 8.9 8.9 8.8 8.7 8.6 8.9 9.0 9.0 8.8 8.6
8.4 8.4 8.2 8.3 7.8 8.3 7.0 6.4 7.8 7.9 7.6 7.7 7.7 7.5 7.1 7.3 7.6 7.7 7.9 8.1 8.3 8.6 9.1 8.9 9.0 9.0 9.0 9.1 9.1 9.2 9.4 9.3 9.1 9.2 9.1 8.9 8.8 8.8 8.8 9.0 9.0 9.0 9.1 8.8
7.0 7.2 7.6 8.5 7.3 7.1 6.5 6.3 7.2 7.2 7.5 7.6 7.6 7.6 7.4 7.4 7.5 7.6 7.9 8.2 8.2 8.2 8.7 8.9 8.8 8.9 8.9 9.0 9.2 9.2 9.4 9.4 9.3 9.2 9.2 9.2 8.8 8.7 9.0 9.1 9.1 9.2 9.0 8.8
5.7 6.1 7.4 7.0 6.0 6.6 5.2 5.7 6.8 6.8 6.6 6.7 7.4 7.4 7.3 7.2 7.4 7.5 7.8 7.9 8.0 8.5 8.5 8.6 8.7 8.7 8.8 8.8 9.1 9.3 9.3 9.4 9.3 9.2 9.3 9.2 9.2 9.1 9.2 9.2 9.3 9.2 9.0 9.0
Wind_Speed
20 17 20 23 23 22 12 18 15 11 11 4 10 6 19 18 16 18 18 20 19 18 19 16 17 17 17 15 15 15 13 10 8 6 7 6 7 5 3 2 2 1 3 5
21 23 24 23 24 24 26 26 8 6 7 5 14 12 14 21 20 21 20 21 23 22 18 16 17 18 18 17 16 16 14 12 9 7 5 3 3 3 2 3 2 1 1 3
27 26 24 24 24 23 19 16 11 12 4 11 14 14 15 22 20 19 21 22 22 23 23 20 18 20 19 19 18 16 14 13 11 9 6 4 2 3 4 5 6 5 1 3
27 27 26 26 27 24 22 17 14 10 9 12 5 13 16 18 20 21 20 22 23 24 24 24 23 21 22 19 18 17 15 13 12 11 7 8 6 6 3 2 4 1 1 3
25 28 27 25 27 25 21 20 16 13 14 16 19 8 7 19 19 21 21 22 22 23 23 26 25 24 22 20 18 18 15 14 12 12 10 8 8 5 4 5 5 3 3 4
23 23 29 31 25 27 22 20 11 12 14 14 18 13 13 19 19 21 22 22 22 23 23 23 23 22 21 20 19 18 16 13 14 12 13 11 8 8 5 5 4 5 3 4
22 28 25 26 28 25 26 21 11 13 13 14 10 15 4 24 7 18 23 24 23 22 23 23 23 22 21 22 21 18 17 16 16 16 14 14 12 9 8 6 6 5 4 4
21 20 30 21 24 25 23 25 13 19 16 14 14 9 7 33 7 13 19 23 24 23 22 23 25 23 22 22 22 21 19 16 17 17 15 12 12 9 9 9 8 6 5 4
23 26 29 26 25 25 27 25 23 24 9 10 3 19 14 10 13 5 13 24 25 23 23 23 24 23 23 22 22 21 19 17 17 17 14 13 12 12 10 9 8 7 7 7
26 19 26 28 24 27 30 21 22 18 18 3 11 15 12 16 10 10 10 23 24 23 22 22 22 23 21 22 21 21 20 18 18 17 14 13 13 13 11 9 9 8 7 5
28 23 21 23 26 26 22 24 21 22 19 7 12 20 17 13 9 2 12 20 23 23 22 21 21 21 21 21 21 21 20 19 17 15 14 13 14 13 13 12 11 11 9 8
21 24 18 29 24 29 28 28 26 17 23 15 7 12 20 13 9 6 14 19 21 21 21 20 20 21 21 20 20 20 19 18 16 14 13 15 14 14 14 13 12 11 10 9
9 22 17 23 26 27 28 30 28 23 21 21 7 12 20 11 6 12 17 19 19 20 21 20 20 20 20 20 18 19 18 19 17 15 16 16 16 15 15 14 13 12 11 10
9 17 23 20 22 23 29 28 28 28 19 20 17 3 12 10 9 16 18 19 20 20 20 20 19 17 17 17 16 16 17 18 17 16 17 16 16 16 15 13 12 12 11 11
10 17 23 28 25 24 27 30 28 30 25 25 20 24 31 14 12 15 18 18 20 19 21 20 19 17 17 17 16 16 16 17 17 16 16 16 15 14 13 13 12 11 12 11
9 15 21 25 26 23 25 30 31 28 29 27 23 22 23 10 13 14 17 19 20 20 21 21 20 19 18 19 18 17 17 17 16 17 17 15 15 14 13 12 12 11 11 8
11 13 18 22 24 26 22 28 31 28 28 27 26 17 25 27 14 16 13 18 19 20 20 20 21 20 19 20 19 19 18 16 17 16 16 15 15 14 14 13 12 13 13 19
10 8 11 16 20 28 12 19 21 27 26 27 23 22 21 12 13 11 16 17 18 19 20 20 19 18 19 19 19 18 18 17 17 17 17 16 15 15 14 14 14 13 13 12
15 9 7 12 18 14 21 20 19 24 27 26 25 25 17 19 11 13 13 14 20 20 18 17 18 18 16 18 18 19 18 18 18 19 18 17 17 16 15 16 15 13 12 13
17 13 10 9 17 28 18 21 14 16 18 21 25 23 24 17 16 12 16 11 10 10 15 15 20 19 19 18 18 19 19 19 20 20 19 17 17 17 17 16 16 13 13 13
17 14 15 12 9 12 17 19 20 19 9 10 15 14 16 16 13 14 11 10 14 13 14 13 15 15 18 18 18 20 20 21 23 17 17 18 18 17 15 14 14 14 14 13
20 13 12 14 12 15 11 6 1 7 9 12 12 3 15 16 18 16 16 16 11 14 12 13 12 12 13 15 18 20 21 22 16 16 17 17 16 14 13 16 15 15 13 13
17 18 11 14 14 7 13 12 14 13 12 12 12 11 11 11 16 20 18 16 16 14 10 11 12 12 12 14 18 20 24 16 17 17 17 17 16 15 14 16 16 12 14 13
11 5 17 10 19 13 9 12 14 15 13 13 13 15 13 11 13 15 13 16 16 14 14 14 14 14 14 15 18 21 15 16 17 17 17 16 16 15 14 13 13 14 14 14
4 11 12 10 15 10 11 12 15 16 15 16 16 15 14 14 15 15 15 14 14 14 13 13 13 14 15 13 15 15 15 18 19 18 17 17 15 16 14 12 13 14 15 14
3 6 4 5 10 9 11 14 15 17 16 18 19 19 18 16 16 16 16 14 14 15 13 11 12 12 12 14 14 15 15 17 18 18 16 15 15 14 12 14 9 13 10 10
Wind_Direction
214 229 231 231 234 256 14 279 286 179 151 200 242 258 158 171 185 180 187 189 197 199 183 185 197 186 179 181 178 187 185 177 179 189 198 197 205 196 191 164 112 234 37 28
225 222 231 238 240 249 161 254 272 276 133 225 266 220 183 171 194 185 188 191 196 196 189 196 190 192 190 184 184 186 190 180 201 196 223 230 232 169 353 31 73 214 8 351
224 226 223 234 235 244 241 250 233 235 157 230 255 262 244 168 189 200 187 186 197 200 187 191 195 195 193 189 189 187 194 187 198 221 190 173 228 259 216 185 201 151 190 334
230 229 223 223 235 233 241 222 264 286 266 268 184 266 237 174 189 197 193 189 191 198 188 190 194 196 196 197 190 191 191 197 197 203 201 202 221 229 158 180 92 224 240 323
228 227 227 218 228 228 238 245 223 236 256 255 209 238 250 169 188 194 199 193 194 193 196 189 194 192 199 195 193 194 188 196 209 194 232 196 231 220 217 222 124 225 236 230
246 224 224 226 220 228 229 241 230 240 247 252 248 256 242 183 184 195 192 194 194 189 195 197 189 189 197 198 195 191 188 197 201 206 201 230 223 234 260 194 239 245 248 207
223 238 216 228 230 222 227 225 220 228 231 245 272 211 202 341 148 178 183 191 189 188 190 191 186 190 193 198 195 193 187 194 204 206 211 206 217 225 236 242 234 272 283 256
219 217 225 205 229 220 220 226 220 218 231 232 170 238 243 197 141 152 175 181 184 189 187 188 186 188 190 194 194 195 187 195 203 208 207 206 207 217 220 227 252 246 256 262
212 230 206 219 217 226 216 225 228 248 273 267 63 264 211 167 199 175 187 169 181 186 184 186 188 186 188 191 192 195 190 194 202 205 203 202 205 222 222 240 196 225 237 260
241 228 225 202 216 219 235 204 224 240 245 231 289 295 208 191 205 176 213 169 175 180 182 182 187 184 188 190 190 194 194 193 200 203 200 200 203 209 223 235 228 246 262 249
238 247 217 201 204 210 216 224 217 235 238 190 225 243 175 167 185 77 187 166 170 178 181 179 185 182 188 187 190 193 195 192 197 200 196 199 202 205 212 220 226 230 232 233
244 237 239 217 201 220 215 217 226 224 236 251 270 289 227 146 141 167 175 158 168 179 181 176 182 178 185 189 190 191 194 194 193 194 198 194 202 206 209 215 223 224 221 219
287 234 225 238 199 206 224 219 222 226 235 236 171 245 260 131 131 158 152 160 167 177 179 174 180 176 182 189 189 191 191 195 190 190 197 203 203 207 212 211 217 218 211 213
293 261 237 216 213 203 206 227 214 230 218 231 209 115 290 140 133 152 151 161 169 180 175 173 179 173 179 187 185 189 187 193 189 190 199 203 204 206 210 210 211 212 204 199
241 251 240 241 231 206 203 215 218 222 229 227 243 146 252 123 120 151 151 162 170 181 176 173 178 173 178 184 185 188 190 195 189 190 199 202 202 205 207 202 208 204 198 196
288 258 249 240 246 246 216 203 222 218 225 236 216 248 201 96 116 156 156 170 175 184 182 178 180 179 184 184 187 188 195 191 192 190 198 198 196 200 200 204 198 192 185 182
287 257 240 237 232 241 237 210 208 222 220 225 230 216 262 154 161 151 175 176 185 186 186 187 188 185 189 189 188 189 191 191 194 195 195 195 193 197 197 199 196 184 162 170
264 288 276 230 232 232 221 229 216 219 229 230 233 228 232 247 172 164 172 184 189 194 195 195 192 193 195 195 192 195 191 193 193 196 196 193 192 196 193 196 194 177 170 171
232 255 242 232 228 229 228 231 228 212 219 231 224 241 229 215 236 180 210 181 185 194 200 201 203 201 194 199 195 196 194 192 196 198 198 194 192 191 192 195 191 174 160 168
215 220 257 242 239 221 221 219 227 239 243 217 229 230 245 230 224 217 211 196 199 223 200 204 200 202 193 202 197 194 203 197 201 200 196 192 190 192 194 190 184 163 166 178
200 209 215 227 249 254 204 214 210 225 223 280 238 242 253 258 251 250 220 226 222 219 222 212 210 206 204 193 196 202 200 207 208 196 193 192 191 189 185 179 168 160 172 169
194 194 205 224 217 231 14 343 2 359 0 358 1 271 246 242 261 261 258 248 256 208 222 202 211 216 212 196 196 206 207 211 196 191 191 187 183 181 178 176 161 164 168 163
196 201 200 208 214 89 66 33 16 1 352 351 333 336 338 315 253 234 253 245 254 257 231 230 220 212 214 205 205 207 217 195 190 186 185 178 173 179 176 161 161 163 167 173
225 265 223 225 223 249 21 33 357 337 340 330 318 311 313 304 299 298 291 240 242 245 237 239 228 222 210 208 209 215 200 194 184 183 177 172 172 176 158 164 164 172 179 184
341 310 219 231 38 332 61 5 343 331 329 324 318 309 299 294 292 288 281 281 283 240 239 241 227 219 222 206 205 206 200 190 186 180 176 174 178 177 162 163 173 188 194 191
98 317 355 48 26 348 341 339 332 326 328 342 317 308 303 289 276 275 271 269 265 254 245 228 239 222 222 201 198 196 198 187 185 183 181 180 178 166 168 171 170 31 172 162